contact:dominique.lefevre@mio.osupytheas.fr, maurice.libes@osupytheas.fr, didier.mallarino@osupytheas.fr
Project:EMSO http://www.emso-fr.org/EMSO-France
Depth: 2436.0 m
Title:EMSO Ligure Ouest : Data MII capteur MICROCAT
DateTime_Computer,Latitude,Longitude,Temperature,Conductivity,Pressure,DateTime_Instrument
DateTime_Computer,Latitude,Longitude,degC,S m-1,dbar,DateTime_Instrument
2020-03-17T00:00:20Z,42.805,6.029,13.2980,4.60011,2470.203,2020-3-17T02:00:57Z
2020-03-17T00:03:23Z,42.805,6.029,13.2977,4.60021,2470.18,2020-3-17T02:04:01Z
2020-03-17T00:06:26Z,42.805,6.029,13.2989,4.60039,2470.203,2020-3-17T02:07:04Z
2020-03-17T00:09:30Z,42.805,6.029,13.2985,4.60016,2470.18,2020-3-17T02:10:07Z
2020-03-17T00:12:33Z,42.805,6.029,13.2977,4.60008,2470.194,2020-3-17T02:13:10Z
2020-03-17T00:15:36Z,42.805,6.029,13.2984,4.60023,2470.203,2020-3-17T02:16:13Z
2020-03-17T00:18:39Z,42.805,6.029,13.2978,4.60002,2470.217,2020-3-17T02:19:17Z
2020-03-17T00:21:43Z,42.805,6.029,13.2987,4.60008,2470.194,2020-3-17T02:22:20Z
2020-03-17T00:24:46Z,42.805,6.029,13.2980,4.60001,2470.203,2020-3-17T02:25:23Z
2020-03-17T00:27:49Z,42.805,6.029,13.2984,4.60006,2470.18,2020-3-17T02:28:26Z
2020-03-17T00:30:52Z,42.805,6.029,13.2989,4.60021,2470.194,2020-3-17T02:31:30Z
2020-03-17T00:33:55Z,42.805,6.029,13.2985,4.60011,2470.171,2020-3-17T02:34:33Z
2020-03-17T00:36:59Z,42.805,6.029,13.2983,4.60011,2470.156,2020-3-17T02:37:36Z
2020-03-17T00:40:02Z,42.805,6.029,13.2979,4.60000,2470.18,2020-3-17T02:40:39Z
2020-03-17T00:43:05Z,42.805,6.029,13.2983,4.60027,2470.194,2020-3-17T02:43:43Z
2020-03-17T00:46:09Z,42.805,6.029,13.2982,4.60011,2470.171,2020-3-17T02:46:46Z
2020-03-17T00:49:12Z,42.805,6.029,13.2982,4.60022,2470.18,2020-3-17T02:49:49Z
2020-03-17T00:52:15Z,42.805,6.029,13.2976,4.60000,2470.194,2020-3-17T02:52:52Z
2020-03-17T00:55:18Z,42.805,6.029,13.2978,4.60014,2470.194,2020-3-17T02:55:56Z
2020-03-17T00:58:21Z,42.805,6.029,13.2978,4.60012,2470.156,2020-3-17T02:58:59Z
2020-03-17T01:01:25Z,42.805,6.029,13.2986,4.60010,2470.217,2020-3-17T03:02:02Z
2020-03-17T01:04:28Z,42.805,6.029,13.2987,4.60014,2470.203,2020-3-17T03:05:05Z
2020-03-17T01:07:31Z,42.805,6.029,13.2982,4.60015,2470.171,2020-3-17T03:08:09Z
2020-03-17T01:10:35Z,42.805,6.029,13.2983,4.60011,2470.18,2020-3-17T03:11:12Z
2020-03-17T01:13:38Z,42.805,6.029,13.2979,4.60001,2470.18,2020-3-17T03:14:15Z
2020-03-17T01:16:41Z,42.805,6.029,13.2980,4.59995,2470.171,2020-3-17T03:17:18Z
2020-03-17T01:19:44Z,42.805,6.029,13.2984,4.60006,2470.217,2020-3-17T03:20:22Z
2020-03-17T01:22:48Z,42.805,6.029,13.2986,4.59998,2470.18,2020-3-17T03:23:25Z
2020-03-17T01:25:51Z,42.805,6.029,13.2983,4.60006,2470.156,2020-3-17T03:26:28Z
2020-03-17T01:28:54Z,42.805,6.029,13.2973,4.59997,2470.203,2020-3-17T03:29:32Z
2020-03-17T01:31:57Z,42.805,6.029,13.2982,4.60004,2470.217,2020-3-17T03:32:35Z
2020-03-17T01:35:01Z,42.805,6.029,13.2986,4.60006,2470.18,2020-3-17T03:35:38Z
2020-03-17T01:38:04Z,42.805,6.029,13.2976,4.59999,2470.217,2020-3-17T03:38:41Z
2020-03-17T01:41:07Z,42.805,6.029,13.2975,4.60001,2470.194,2020-3-17T03:41:45Z
2020-03-17T01:44:11Z,42.805,6.029,13.2980,4.60039,2470.227,2020-3-17T03:44:48Z
2020-03-17T01:47:14Z,42.805,6.029,13.2982,4.60027,2470.194,2020-3-17T03:47:51Z
2020-03-17T01:50:17Z,42.805,6.029,13.2984,4.60004,2470.156,2020-3-17T03:50:54Z
2020-03-17T01:53:20Z,42.805,6.029,13.2991,4.60012,2470.18,2020-3-17T03:53:58Z
2020-03-17T01:56:24Z,42.805,6.029,13.2984,4.60007,2470.194,2020-3-17T03:57:01Z
2020-03-17T01:59:27Z,42.805,6.029,13.2985,4.60026,2470.203,2020-3-17T04:00:04Z
2020-03-17T02:02:30Z,42.805,6.029,13.2991,4.60020,2470.18,2020-3-17T04:03:07Z
2020-03-17T02:05:33Z,42.805,6.029,13.2976,4.60007,2470.18,2020-3-17T04:06:10Z
2020-03-17T02:08:36Z,42.805,6.029,13.2982,4.60000,2470.18,2020-3-17T04:09:14Z
2020-03-17T02:11:40Z,42.805,6.029,13.2976,4.60003,2470.217,2020-3-17T04:12:17Z
2020-03-17T02:14:43Z,42.805,6.029,13.2989,4.60004,2470.227,2020-3-17T04:15:20Z
2020-03-17T02:17:46Z,42.805,6.029,13.2985,4.60003,2470.203,2020-3-17T04:18:24Z
2020-03-17T02:20:50Z,42.805,6.029,13.2979,4.60011,2470.203,2020-3-17T04:21:27Z
2020-03-17T02:23:53Z,42.805,6.029,13.2986,4.60024,2470.18,2020-3-17T04:24:30Z
2020-03-17T02:26:56Z,42.805,6.029,13.2976,4.60027,2470.203,2020-3-17T04:27:33Z
2020-03-17T02:29:59Z,42.805,6.029,13.2979,4.60033,2470.18,2020-3-17T04:30:36Z
2020-03-17T02:33:03Z,42.805,6.029,13.2979,4.60021,2470.227,2020-3-17T04:33:40Z
2020-03-17T02:36:06Z,42.805,6.029,13.2991,4.60029,2470.217,2020-3-17T04:36:43Z
2020-03-17T02:39:09Z,42.805,6.029,13.2976,4.60019,2470.227,2020-3-17T04:39:46Z
2020-03-17T02:42:12Z,42.805,6.029,13.2983,4.60001,2470.203,2020-3-17T04:42:50Z
2020-03-17T02:45:16Z,42.805,6.029,13.2983,4.60039,2470.217,2020-3-17T04:45:53Z
2020-03-17T02:48:19Z,42.805,6.029,13.2979,4.60020,2470.217,2020-3-17T04:48:56Z
2020-03-17T02:51:22Z,42.805,6.029,13.2981,4.60014,2470.227,2020-3-17T04:51:59Z
2020-03-17T02:54:25Z,42.805,6.029,13.2983,4.60034,2470.203,2020-3-17T04:55:02Z
2020-03-17T02:57:28Z,42.805,6.029,13.2976,4.60030,2470.18,2020-3-17T04:58:06Z
2020-03-17T03:00:32Z,42.805,6.029,13.2978,4.60039,2470.217,2020-3-17T05:01:09Z
2020-03-17T03:03:35Z,42.805,6.029,13.2979,4.60033,2470.194,2020-3-17T05:04:12Z
2020-03-17T03:06:38Z,42.805,6.029,13.2986,4.60022,2470.217,2020-3-17T05:07:16Z
2020-03-17T03:09:42Z,42.805,6.029,13.2977,4.60043,2470.227,2020-3-17T05:10:19Z
2020-03-17T03:12:45Z,42.805,6.029,13.2999,4.60033,2470.227,2020-3-17T05:13:22Z
2020-03-17T03:15:48Z,42.805,6.029,13.2984,4.60015,2470.203,2020-3-17T05:16:25Z
2020-03-17T03:18:51Z,42.805,6.029,13.3002,4.60039,2470.227,2020-3-17T05:19:29Z
2020-03-17T03:21:55Z,42.805,6.029,13.2981,4.60011,2470.227,2020-3-17T05:22:32Z
2020-03-17T03:24:58Z,42.805,6.029,13.2975,4.60011,2470.203,2020-3-17T05:25:35Z
2020-03-17T03:28:01Z,42.805,6.029,13.2982,4.60021,2470.217,2020-3-17T05:28:38Z
2020-03-17T03:31:04Z,42.805,6.029,13.2981,4.60009,2470.217,2020-3-17T05:31:42Z
2020-03-17T03:34:08Z,42.805,6.029,13.3000,4.60005,2470.217,2020-3-17T05:34:45Z
2020-03-17T03:37:11Z,42.805,6.029,13.2999,4.60025,2470.203,2020-3-17T05:37:48Z
2020-03-17T03:40:14Z,42.805,6.029,13.2993,4.60018,2470.203,2020-3-17T05:40:51Z
2020-03-17T03:43:17Z,42.805,6.029,13.2994,4.60024,2470.217,2020-3-17T05:43:55Z
2020-03-17T03:46:21Z,42.805,6.029,13.2987,4.60029,2470.156,2020-3-17T05:46:58Z
2020-03-17T03:49:24Z,42.805,6.029,13.2982,4.60008,2470.227,2020-3-17T05:50:01Z
2020-03-17T03:52:27Z,42.805,6.029,13.2981,4.60023,2470.203,2020-3-17T05:53:05Z
2020-03-17T03:55:31Z,42.805,6.029,13.2985,4.60013,2470.203,2020-3-17T05:56:08Z
2020-03-17T03:58:34Z,42.805,6.029,13.2986,4.60007,2470.18,2020-3-17T05:59:11Z
2020-03-17T04:01:37Z,42.805,6.029,13.2989,4.60003,2470.194,2020-3-17T06:02:14Z
2020-03-17T04:04:40Z,42.805,6.029,13.2979,4.59999,2470.217,2020-3-17T06:05:18Z
2020-03-17T04:07:44Z,42.805,6.029,13.2990,4.60004,2470.217,2020-3-17T06:08:21Z
2020-03-17T04:10:47Z,42.805,6.029,13.2990,4.59996,2470.171,2020-3-17T06:11:24Z
2020-03-17T04:13:50Z,42.805,6.029,13.2991,4.59990,2470.227,2020-3-17T06:14:28Z
2020-03-17T04:16:54Z,42.805,6.029,13.2996,4.60005,2470.217,2020-3-17T06:17:31Z
2020-03-17T04:19:57Z,42.805,6.029,13.2991,4.60011,2470.203,2020-3-17T06:20:34Z
2020-03-17T04:23:00Z,42.805,6.029,13.2996,4.59996,2470.18,2020-3-17T06:23:38Z
2020-03-17T04:26:03Z,42.805,6.029,13.2986,4.59988,2470.24,2020-3-17T06:26:41Z
2020-03-17T04:29:07Z,42.805,6.029,13.2982,4.59986,2470.227,2020-3-17T06:29:44Z
2020-03-17T04:32:10Z,42.805,6.029,13.2987,4.60003,2470.217,2020-3-17T06:32:47Z
2020-03-17T04:35:13Z,42.805,6.029,13.2990,4.60017,2470.18,2020-3-17T06:35:50Z
2020-03-17T04:38:16Z,42.805,6.029,13.2996,4.60023,2470.203,2020-3-17T06:38:54Z
2020-03-17T04:41:20Z,42.805,6.029,13.2989,4.60032,2470.203,2020-3-17T06:41:57Z
2020-03-17T04:44:23Z,42.805,6.029,13.2980,4.60021,2470.217,2020-3-17T06:45:00Z
2020-03-17T04:47:26Z,42.805,6.029,13.2984,4.60004,2470.194,2020-3-17T06:48:03Z
2020-03-17T04:50:29Z,42.805,6.029,13.2979,4.59986,2470.203,2020-3-17T06:51:07Z
2020-03-17T04:53:32Z,42.805,6.029,13.2976,4.59996,2470.156,2020-3-17T06:54:10Z
2020-03-17T04:56:36Z,42.805,6.029,13.2990,4.59991,2470.18,2020-3-17T06:57:13Z
2020-03-17T04:59:39Z,42.805,6.029,13.2984,4.60014,2470.194,2020-3-17T07:00:16Z
2020-03-17T05:02:42Z,42.805,6.029,13.2993,4.60015,2470.156,2020-3-17T07:03:20Z
2020-03-17T05:05:46Z,42.805,6.029,13.2982,4.59986,2470.18,2020-3-17T07:06:23Z
2020-03-17T05:08:49Z,42.805,6.029,13.2983,4.59994,2470.171,2020-3-17T07:09:26Z
2020-03-17T05:11:52Z,42.805,6.029,13.2983,4.60024,2470.203,2020-3-17T07:12:30Z
2020-03-17T05:14:55Z,42.805,6.029,13.2986,4.60003,2470.171,2020-3-17T07:15:33Z
2020-03-17T05:17:59Z,42.805,6.029,13.2990,4.60009,2470.18,2020-3-17T07:18:36Z
2020-03-17T05:21:02Z,42.805,6.029,13.2988,4.60016,2470.18,2020-3-17T07:21:39Z
2020-03-17T05:24:05Z,42.805,6.029,13.2998,4.60039,2470.203,2020-3-17T07:24:43Z
2020-03-17T05:27:09Z,42.805,6.029,13.2986,4.60016,2470.18,2020-3-17T07:27:46Z
2020-03-17T05:30:12Z,42.805,6.029,13.2979,4.59976,2470.18,2020-3-17T07:30:49Z
2020-03-17T05:33:15Z,42.805,6.029,13.2985,4.59992,2470.156,2020-3-17T07:33:53Z
2020-03-17T05:36:19Z,42.805,6.029,13.2994,4.60005,2470.171,2020-3-17T07:36:56Z
2020-03-17T05:39:22Z,42.805,6.029,13.2990,4.60009,2470.18,2020-3-17T07:39:59Z
2020-03-17T05:42:25Z,42.805,6.029,13.2993,4.60007,2470.194,2020-3-17T07:43:03Z
2020-03-17T05:45:28Z,42.805,6.029,13.2986,4.59995,2470.156,2020-3-17T07:46:06Z
2020-03-17T05:48:32Z,42.805,6.029,13.2983,4.60011,2470.18,2020-3-17T07:49:09Z
2020-03-17T05:51:35Z,42.805,6.029,13.2990,4.60014,2470.171,2020-3-17T07:52:12Z
2020-03-17T05:54:38Z,42.805,6.029,13.2982,4.60004,2470.18,2020-3-17T07:55:15Z
2020-03-17T05:57:41Z,42.805,6.029,13.2986,4.59998,2470.171,2020-3-17T07:58:19Z
2020-03-17T06:00:45Z,42.805,6.029,13.2986,4.59981,2470.171,2020-3-17T08:01:22Z
2020-03-17T06:03:48Z,42.805,6.029,13.2987,4.59995,2470.171,2020-3-17T08:04:25Z
2020-03-17T06:06:51Z,42.805,6.029,13.2985,4.59994,2470.156,2020-3-17T08:07:29Z
2020-03-17T06:09:55Z,42.805,6.029,13.2979,4.60006,2470.133,2020-3-17T08:10:32Z
2020-03-17T06:12:58Z,42.805,6.029,13.2988,4.60002,2470.143,2020-3-17T08:13:35Z
2020-03-17T06:16:01Z,42.805,6.029,13.2983,4.59998,2470.171,2020-3-17T08:16:38Z
2020-03-17T06:19:04Z,42.805,6.029,13.2985,4.60035,2470.119,2020-3-17T08:19:42Z
2020-03-17T06:22:08Z,42.805,6.029,13.2985,4.60007,2470.147,2020-3-17T08:22:45Z
2020-03-17T06:25:11Z,42.805,6.029,13.2983,4.60011,2470.156,2020-3-17T08:25:48Z
2020-03-17T06:28:14Z,42.805,6.029,13.2989,4.60021,2470.171,2020-3-17T08:28:51Z
2020-03-17T06:31:17Z,42.805,6.029,13.2985,4.60044,2470.171,2020-3-17T08:31:55Z
2020-03-17T06:34:21Z,42.805,6.029,13.2988,4.60014,2470.147,2020-3-17T08:34:58Z
2020-03-17T06:37:24Z,42.805,6.029,13.2984,4.60013,2470.133,2020-3-17T08:38:01Z
2020-03-17T06:40:27Z,42.805,6.029,13.2986,4.59989,2470.18,2020-3-17T08:41:05Z
2020-03-17T06:43:30Z,42.805,6.029,13.3004,4.60019,2470.171,2020-3-17T08:44:08Z
2020-03-17T06:46:34Z,42.805,6.029,13.3006,4.60016,2470.133,2020-3-17T08:47:11Z
2020-03-17T06:49:37Z,42.805,6.029,13.2988,4.60026,2470.133,2020-3-17T08:50:14Z
2020-03-17T06:52:40Z,42.805,6.029,13.2982,4.60029,2470.133,2020-3-17T08:53:18Z
2020-03-17T06:55:44Z,42.805,6.029,13.3003,4.60009,2470.156,2020-3-17T08:56:21Z
2020-03-17T06:58:47Z,42.805,6.029,13.2974,4.60009,2470.133,2020-3-17T08:59:24Z
2020-03-17T07:01:50Z,42.805,6.029,13.2977,4.60021,2470.133,2020-3-17T09:02:27Z
2020-03-17T07:04:53Z,42.805,6.029,13.2977,4.60017,2470.133,2020-3-17T09:05:31Z
2020-03-17T07:07:57Z,42.805,6.029,13.2983,4.60023,2470.133,2020-3-17T09:08:34Z
2020-03-17T07:11:00Z,42.805,6.029,13.2978,4.60033,2470.119,2020-3-17T09:11:37Z
2020-03-17T07:14:03Z,42.805,6.029,13.2997,4.60003,2470.133,2020-3-17T09:14:41Z
2020-03-17T07:17:06Z,42.805,6.029,13.2987,4.60013,2470.11,2020-3-17T09:17:44Z
2020-03-17T07:20:10Z,42.805,6.029,13.2983,4.60031,2470.147,2020-3-17T09:20:47Z
2020-03-17T07:23:13Z,42.805,6.029,13.2986,4.60033,2470.11,2020-3-17T09:23:50Z
2020-03-17T07:26:16Z,42.805,6.029,13.2980,4.60025,2470.133,2020-3-17T09:26:54Z
2020-03-17T07:29:19Z,42.805,6.029,13.2977,4.59993,2470.133,2020-3-17T09:29:57Z
2020-03-17T07:32:23Z,42.805,6.029,13.2979,4.60009,2470.147,2020-3-17T09:33:00Z
2020-03-17T07:35:26Z,42.805,6.029,13.2981,4.60017,2470.147,2020-3-17T09:36:03Z
2020-03-17T07:38:29Z,42.805,6.029,13.2988,4.60029,2470.156,2020-3-17T09:39:07Z
2020-03-17T07:41:33Z,42.805,6.029,13.2982,4.60002,2470.087,2020-3-17T09:42:10Z
2020-03-17T07:44:36Z,42.805,6.029,13.2981,4.60011,2470.133,2020-3-17T09:45:13Z
2020-03-17T07:47:39Z,42.805,6.029,13.2981,4.60013,2470.147,2020-3-17T09:48:16Z
2020-03-17T07:50:43Z,42.805,6.029,13.2979,4.60003,2470.124,2020-3-17T09:51:20Z
2020-03-17T07:53:46Z,42.805,6.029,13.2982,4.60027,2470.124,2020-3-17T09:54:23Z
2020-03-17T07:56:49Z,42.805,6.029,13.2991,4.60016,2470.087,2020-3-17T09:57:26Z
2020-03-17T07:59:52Z,42.805,6.029,13.2997,4.59997,2470.1,2020-3-17T10:00:30Z
2020-03-17T08:02:56Z,42.805,6.029,13.2996,4.60035,2470.124,2020-3-17T10:03:33Z
2020-03-17T08:05:59Z,42.805,6.029,13.2983,4.60029,2470.124,2020-3-17T10:06:36Z
2020-03-17T08:09:02Z,42.805,6.029,13.2982,4.60029,2470.124,2020-3-17T10:09:39Z
2020-03-17T08:12:05Z,42.805,6.029,13.2993,4.60016,2470.124,2020-3-17T10:12:43Z
2020-03-17T08:15:09Z,42.805,6.029,13.2989,4.60000,2470.087,2020-3-17T10:15:46Z
2020-03-17T08:18:12Z,42.805,6.029,13.2983,4.60014,2470.124,2020-3-17T10:18:49Z
2020-03-17T08:21:15Z,42.805,6.029,13.2985,4.60011,2470.119,2020-3-17T10:21:52Z
2020-03-17T08:24:18Z,42.805,6.029,13.2993,4.60014,2470.087,2020-3-17T10:24:56Z
2020-03-17T08:27:22Z,42.805,6.029,13.2995,4.60016,2470.147,2020-3-17T10:27:59Z
2020-03-17T08:30:25Z,42.805,6.029,13.2993,4.60009,2470.087,2020-3-17T10:31:02Z
2020-03-17T08:33:28Z,42.805,6.029,13.2982,4.59995,2470.156,2020-3-17T10:34:05Z
2020-03-17T08:36:31Z,42.805,6.029,13.2986,4.60010,2470.124,2020-3-17T10:37:09Z
2020-03-17T08:39:35Z,42.805,6.029,13.2982,4.60005,2470.11,2020-3-17T10:40:12Z
2020-03-17T08:42:38Z,42.805,6.029,13.2984,4.59996,2470.11,2020-3-17T10:43:15Z
2020-03-17T08:45:41Z,42.805,6.029,13.3000,4.60020,2470.11,2020-3-17T10:46:18Z
2020-03-17T08:48:44Z,42.805,6.029,13.2986,4.59988,2470.087,2020-3-17T10:49:22Z
2020-03-17T08:51:47Z,42.805,6.029,13.2983,4.60018,2470.11,2020-3-17T10:52:25Z
2020-03-17T08:54:51Z,42.805,6.029,13.2990,4.59988,2470.11,2020-3-17T10:55:28Z
2020-03-17T08:57:54Z,42.805,6.029,13.2987,4.60009,2470.11,2020-3-17T10:58:31Z
2020-03-17T09:00:57Z,42.805,6.029,13.2985,4.60021,2470.124,2020-3-17T11:01:34Z
2020-03-17T09:04:00Z,42.805,6.029,13.2987,4.59992,2470.133,2020-3-17T11:04:38Z
2020-03-17T09:07:04Z,42.805,6.029,13.2969,4.59980,2470.124,2020-3-17T11:07:41Z
2020-03-17T09:10:07Z,42.805,6.029,13.2988,4.59979,2470.156,2020-3-17T11:10:44Z
2020-03-17T09:13:10Z,42.805,6.029,13.2982,4.59973,2470.171,2020-3-17T11:13:48Z
2020-03-17T09:16:14Z,42.805,6.029,13.2985,4.60031,2470.11,2020-3-17T11:16:51Z
2020-03-17T09:19:17Z,42.805,6.029,13.2999,4.60010,2470.133,2020-3-17T11:19:54Z
2020-03-17T09:22:20Z,42.805,6.029,13.2979,4.60023,2470.133,2020-3-17T11:22:57Z
2020-03-17T09:25:23Z,42.805,6.029,13.2992,4.59986,2470.133,2020-3-17T11:26:01Z
2020-03-17T09:28:27Z,42.805,6.029,13.2976,4.60005,2470.124,2020-3-17T11:29:04Z
2020-03-17T09:31:30Z,42.805,6.029,13.2988,4.60016,2470.087,2020-3-17T11:32:08Z
2020-03-17T09:34:33Z,42.805,6.029,13.2982,4.60011,2470.11,2020-3-17T11:35:11Z
2020-03-17T09:37:37Z,42.805,6.029,13.2986,4.60030,2470.087,2020-3-17T11:38:14Z
2020-03-17T09:40:40Z,42.805,6.029,13.2986,4.60019,2470.11,2020-3-17T11:41:17Z
2020-03-17T09:43:43Z,42.805,6.029,13.2980,4.60003,2470.11,2020-3-17T11:44:21Z
2020-03-17T09:46:46Z,42.805,6.029,13.2990,4.60021,2470.147,2020-3-17T11:47:24Z
2020-03-17T09:49:50Z,42.805,6.029,13.2986,4.60013,2470.133,2020-3-17T11:50:27Z
2020-03-17T09:52:53Z,42.805,6.029,13.2980,4.60011,2470.11,2020-3-17T11:53:30Z
2020-03-17T09:55:56Z,42.805,6.029,13.2985,4.60021,2470.147,2020-3-17T11:56:33Z
2020-03-17T09:59:00Z,42.805,6.029,13.2990,4.60022,2470.11,2020-3-17T11:59:37Z
2020-03-17T10:02:03Z,42.805,6.029,13.2988,4.60028,2470.124,2020-3-17T12:02:40Z
2020-03-17T10:05:06Z,42.805,6.029,13.2982,4.60008,2470.124,2020-3-17T12:05:43Z
2020-03-17T10:08:09Z,42.805,6.029,13.2983,4.60008,2470.147,2020-3-17T12:08:47Z
2020-03-17T10:11:13Z,42.805,6.029,13.2983,4.60019,2470.147,2020-3-17T12:11:50Z
2020-03-17T10:14:16Z,42.805,6.029,13.2982,4.60006,2470.147,2020-3-17T12:14:53Z
2020-03-17T10:17:19Z,42.805,6.029,13.2977,4.60013,2470.133,2020-3-17T12:17:56Z
2020-03-17T10:20:22Z,42.805,6.029,13.2985,4.59984,2470.124,2020-3-17T12:21:00Z
2020-03-17T10:23:26Z,42.805,6.029,13.2989,4.59999,2470.124,2020-3-17T12:24:03Z
2020-03-17T10:26:29Z,42.805,6.029,13.2980,4.60011,2470.147,2020-3-17T12:27:06Z
2020-03-17T10:29:32Z,42.805,6.029,13.2983,4.59999,2470.133,2020-3-17T12:30:09Z
2020-03-17T10:32:35Z,42.805,6.029,13.2982,4.60004,2470.156,2020-3-17T12:33:13Z
2020-03-17T10:35:39Z,42.805,6.029,13.2986,4.59999,2470.147,2020-3-17T12:36:16Z
2020-03-17T10:38:42Z,42.805,6.029,13.2987,4.60005,2470.133,2020-3-17T12:39:19Z
2020-03-17T10:41:45Z,42.805,6.029,13.2979,4.60014,2470.133,2020-3-17T12:42:22Z
2020-03-17T10:44:48Z,42.805,6.029,13.2992,4.59997,2470.133,2020-3-17T12:45:26Z
2020-03-17T10:47:52Z,42.805,6.029,13.2980,4.60009,2470.147,2020-3-17T12:48:29Z
2020-03-17T10:50:55Z,42.805,6.029,13.2987,4.60017,2470.156,2020-3-17T12:51:32Z
2020-03-17T10:53:58Z,42.805,6.029,13.2987,4.59988,2470.156,2020-3-17T12:54:35Z
2020-03-17T10:57:01Z,42.805,6.029,13.2982,4.60009,2470.147,2020-3-17T12:57:39Z
2020-03-17T11:00:04Z,42.805,6.029,13.2977,4.60008,2470.147,2020-3-17T13:00:42Z
2020-03-17T11:03:08Z,42.805,6.029,13.2976,4.60008,2470.133,2020-3-17T13:03:45Z
2020-03-17T11:06:11Z,42.805,6.029,13.2991,4.60005,2470.171,2020-3-17T13:06:48Z
2020-03-17T11:09:14Z,42.805,6.029,13.2981,4.60006,2470.147,2020-3-17T13:09:52Z
2020-03-17T11:12:18Z,42.805,6.029,13.2984,4.60025,2470.124,2020-3-17T13:12:55Z
2020-03-17T11:15:21Z,42.805,6.029,13.2980,4.60007,2470.133,2020-3-17T13:15:58Z
2020-03-17T11:18:24Z,42.805,6.029,13.2981,4.59999,2470.133,2020-3-17T13:19:01Z
2020-03-17T11:21:27Z,42.805,6.029,13.2982,4.59995,2470.156,2020-3-17T13:22:05Z
2020-03-17T11:24:30Z,42.805,6.029,13.2987,4.60037,2470.133,2020-3-17T13:25:08Z
2020-03-17T11:27:34Z,42.805,6.029,13.2988,4.60006,2470.156,2020-3-17T13:28:11Z
2020-03-17T11:30:37Z,42.805,6.029,13.2984,4.60003,2470.133,2020-3-17T13:31:14Z
2020-03-17T11:33:40Z,42.805,6.029,13.2983,4.60016,2470.156,2020-3-17T13:34:18Z
2020-03-17T11:36:44Z,42.805,6.029,13.2982,4.60016,2470.133,2020-3-17T13:37:21Z
2020-03-17T11:39:47Z,42.805,6.029,13.2981,4.60015,2470.133,2020-3-17T13:40:24Z
2020-03-17T11:42:50Z,42.805,6.029,13.2987,4.60003,2470.11,2020-3-17T13:43:27Z
2020-03-17T11:45:53Z,42.805,6.029,13.2992,4.59991,2470.133,2020-3-17T13:46:31Z
2020-03-17T11:48:57Z,42.805,6.029,13.2991,4.60014,2470.156,2020-3-17T13:49:34Z
2020-03-17T11:52:00Z,42.805,6.029,13.2975,4.60011,2470.11,2020-3-17T13:52:37Z
2020-03-17T11:55:03Z,42.805,6.029,13.2986,4.60031,2470.156,2020-3-17T13:55:41Z
2020-03-17T11:58:06Z,42.805,6.029,13.2985,4.60014,2470.133,2020-3-17T13:58:44Z
2020-03-17T12:01:10Z,42.805,6.029,13.2976,4.60005,2470.171,2020-3-17T14:01:47Z
2020-03-17T12:04:13Z,42.805,6.029,13.2979,4.60009,2470.11,2020-3-17T14:04:50Z
2020-03-17T12:07:16Z,42.805,6.029,13.2983,4.60011,2470.194,2020-3-17T14:07:54Z
2020-03-17T12:10:19Z,42.805,6.029,13.2981,4.59999,2470.147,2020-3-17T14:10:57Z
2020-03-17T12:13:23Z,42.805,6.029,13.2976,4.60005,2470.156,2020-3-17T14:14:00Z
2020-03-17T12:16:26Z,42.805,6.029,13.2979,4.59993,2470.133,2020-3-17T14:17:03Z
2020-03-17T12:19:29Z,42.805,6.029,13.2991,4.60007,2470.124,2020-3-17T14:20:07Z
2020-03-17T12:22:32Z,42.805,6.029,13.2980,4.60014,2470.133,2020-3-17T14:23:10Z
2020-03-17T12:25:36Z,42.805,6.029,13.2977,4.60011,2470.147,2020-3-17T14:26:13Z
2020-03-17T12:28:39Z,42.805,6.029,13.2981,4.60023,2470.133,2020-3-17T14:29:16Z
2020-03-17T12:31:42Z,42.805,6.029,13.2977,4.60013,2470.133,2020-3-17T14:32:20Z
2020-03-17T12:34:45Z,42.805,6.029,13.2990,4.60021,2470.133,2020-3-17T14:35:23Z
2020-03-17T12:37:49Z,42.805,6.029,13.2990,4.60019,2470.124,2020-3-17T14:38:26Z
2020-03-17T12:40:52Z,42.805,6.029,13.2977,4.60008,2470.147,2020-3-17T14:41:29Z
2020-03-17T12:43:55Z,42.805,6.029,13.2976,4.60004,2470.156,2020-3-17T14:44:32Z
2020-03-17T12:46:58Z,42.805,6.029,13.2981,4.60021,2470.133,2020-3-17T14:47:36Z
2020-03-17T12:50:02Z,42.805,6.029,13.2992,4.60022,2470.1,2020-3-17T14:50:39Z
2020-03-17T12:53:05Z,42.805,6.029,13.2992,4.60021,2470.156,2020-3-17T14:53:42Z
2020-03-17T12:56:08Z,42.805,6.029,13.2996,4.59994,2470.171,2020-3-17T14:56:45Z
2020-03-17T12:59:11Z,42.805,6.029,13.2984,4.60003,2470.147,2020-3-17T14:59:49Z
2020-03-17T13:02:15Z,42.805,6.029,13.2986,4.60001,2470.124,2020-3-17T15:02:52Z
2020-03-17T13:05:18Z,42.805,6.029,13.2988,4.59991,2470.124,2020-3-17T15:05:55Z
2020-03-17T13:08:21Z,42.805,6.029,13.2993,4.60023,2470.133,2020-3-17T15:08:59Z
2020-03-17T13:11:25Z,42.805,6.029,13.2983,4.59995,2470.124,2020-3-17T15:12:02Z
2020-03-17T13:14:28Z,42.805,6.029,13.2990,4.60031,2470.147,2020-3-17T15:15:05Z
2020-03-17T13:17:31Z,42.805,6.029,13.2990,4.60020,2470.124,2020-3-17T15:18:08Z
2020-03-17T13:20:34Z,42.805,6.029,13.2987,4.59988,2470.171,2020-3-17T15:21:12Z
2020-03-17T13:23:37Z,42.805,6.029,13.2982,4.60001,2470.133,2020-3-17T15:24:15Z
2020-03-17T13:26:41Z,42.805,6.029,13.2992,4.60010,2470.11,2020-3-17T15:27:18Z
2020-03-17T13:29:44Z,42.805,6.029,13.2992,4.60011,2470.133,2020-3-17T15:30:21Z
2020-03-17T13:32:47Z,42.805,6.029,13.2983,4.60009,2470.133,2020-3-17T15:33:25Z
2020-03-17T13:35:51Z,42.805,6.029,13.2987,4.60023,2470.11,2020-3-17T15:36:28Z
2020-03-17T13:38:54Z,42.805,6.029,13.2992,4.60008,2470.133,2020-3-17T15:39:31Z
2020-03-17T13:41:57Z,42.805,6.029,13.2984,4.60004,2470.147,2020-3-17T15:42:34Z
2020-03-17T13:45:00Z,42.805,6.029,13.2985,4.60014,2470.156,2020-3-17T15:45:38Z
2020-03-17T13:48:04Z,42.805,6.029,13.2987,4.60010,2470.156,2020-3-17T15:48:41Z
2020-03-17T13:51:07Z,42.805,6.029,13.2997,4.60042,2470.147,2020-3-17T15:51:44Z
2020-03-17T13:54:10Z,42.805,6.029,13.2988,4.60021,2470.11,2020-3-17T15:54:47Z
2020-03-17T13:57:13Z,42.805,6.029,13.2989,4.60014,2470.156,2020-3-17T15:57:50Z
2020-03-17T14:00:16Z,42.805,6.029,13.2989,4.60014,2470.133,2020-3-17T16:00:54Z
2020-03-17T14:03:20Z,42.805,6.029,13.2986,4.60016,2470.124,2020-3-17T16:03:57Z
2020-03-17T14:06:23Z,42.805,6.029,13.2981,4.60023,2470.156,2020-3-17T16:07:00Z
2020-03-17T14:09:26Z,42.805,6.029,13.2984,4.60009,2470.11,2020-3-17T16:10:03Z
2020-03-17T14:12:29Z,42.805,6.029,13.2994,4.59996,2470.147,2020-3-17T16:13:07Z
2020-03-17T14:15:32Z,42.805,6.029,13.2990,4.60018,2470.156,2020-3-17T16:16:10Z
2020-03-17T14:18:36Z,42.805,6.029,13.2983,4.60024,2470.171,2020-3-17T16:19:13Z
2020-03-17T14:21:39Z,42.805,6.029,13.2976,4.60015,2470.147,2020-3-17T16:22:16Z
2020-03-17T14:24:42Z,42.805,6.029,13.2986,4.60011,2470.124,2020-3-17T16:25:19Z
2020-03-17T14:27:45Z,42.805,6.029,13.2995,4.60008,2470.171,2020-3-17T16:28:23Z
2020-03-17T14:30:49Z,42.805,6.029,13.2986,4.60015,2470.171,2020-3-17T16:31:26Z
2020-03-17T14:33:52Z,42.805,6.029,13.2986,4.60012,2470.087,2020-3-17T16:34:29Z
2020-03-17T14:36:55Z,42.805,6.029,13.2979,4.60009,2470.171,2020-3-17T16:37:32Z
2020-03-17T14:39:58Z,42.805,6.029,13.2977,4.60016,2470.156,2020-3-17T16:40:36Z
2020-03-17T14:43:01Z,42.805,6.029,13.2983,4.60026,2470.147,2020-3-17T16:43:39Z
2020-03-17T14:46:05Z,42.805,6.029,13.2993,4.60005,2470.147,2020-3-17T16:46:42Z
2020-03-17T14:49:08Z,42.805,6.029,13.2976,4.60009,2470.11,2020-3-17T16:49:45Z
2020-03-17T14:52:11Z,42.805,6.029,13.2979,4.60002,2470.147,2020-3-17T16:52:48Z
2020-03-17T14:55:14Z,42.805,6.029,13.2988,4.60019,2470.119,2020-3-17T16:55:52Z
2020-03-17T14:58:18Z,42.805,6.029,13.2996,4.60014,2470.138,2020-3-17T16:58:55Z
2020-03-17T15:01:21Z,42.805,6.029,13.2990,4.60001,2470.133,2020-3-17T17:01:58Z
2020-03-17T15:04:24Z,42.805,6.029,13.2989,4.60016,2470.11,2020-3-17T17:05:01Z
2020-03-17T15:07:27Z,42.805,6.029,13.2976,4.60020,2470.171,2020-3-17T17:08:04Z
2020-03-17T15:10:30Z,42.805,6.029,13.2973,4.59999,2470.096,2020-3-17T17:11:08Z